Weather in Khokhryaki

Russia / Udmurt Republic     56°54′57″N   53°19′21″E
temp.,
°C
wind,
m/s
gust,
m/s
humid.,
%
clouds,
%
prec.,
mm/h
press.,
hPa
HPBL,
m
15 may, sat
sat1501:00+19s39564 0.0 1019221
04:00+16sw25686 0.0 1019119
07:00+20wsw366085 0.0 1019251
10:00+25sw344821 0.0 1019737
13:00+29ssw573698 0.0 10191477
16:00+29sw51029100 0.0 10181573
19:00+26sw4103899 0.0 1018543
22:00+22sw4144956 0.0 1017476
16 may, sun
sun1601:00+18sw2859100 0.0 1018160
04:00+17sw26593 0.0 1018114
07:00+21ssw28475 0.0 1019278
10:00+27ssw48325 0.0 1018855
13:00+30ssw69245 0.0 10172661
16:00+30sw6102560 0.0 10163259
19:00+26sw4103598 0.0 1016915
22:00+21sw31050100 0.0 1016271
17 may, mon
mon1701:00+19sw3953100 0.0 1016211
04:00+17wsw24675 0.0 101783
07:00+20wsw236347 0.0 1018226
10:00+25wsw3547100 0.0 1018851
13:00+28wsw59325 0.0 10172247
16:00+29wsw57297 0.0 10172505
19:00+26w36425 0.0 1017580
22:00+19nnw12665 0.0 101845
18 may, tue
tue1801:00+17nw1172100 0.6 101813
04:00+16wnw117674 0.7 101911
07:00+20w116377 0.0 1019146
10:00+26nw124128 0.0 1019918
13:00+30w15326 0.0 10182821
16:00+28nnw1231100 0.0 10171784
19:00+24e234780 0.1 101797
22:00+20ne236150 0.1 101861
19 may, wed
wed1901:00+18e410655 0.0 1019227
04:00+16e27805 0.0 1019166
07:00+19ese485622 0.0 1020336
10:00+25se46395 0.0 1020922
13:00+28se45345 0.0 10191723
16:00+28sse44335 0.0 10182398
19:00+25se37450 0.0 1018603
22:00+20ese410531 0.0 1018283